Meteo Giornale » Osservazioni meteo Stati Uniti (USA) » Gastonia
ore: 01:54 - Osservazioni Meteo Gastonia
Lat. 35° 11' N Lon. 81° 9' W Alt. 243 metri s.l.m.
22 °C
Sereno
Temp. 24 Ore
19 °C
33 °C
Nord
0 Km/h
Dew point 22 °C
Umidità 100 %
Visibilità 10 Km
Il sole sorge alle ore 06:57
Il sole tramonta alle ore 19:51
| Data e Ora | Cielo e Fenomeni | T °C | DP °C | Um. % | Pres. hPa | Vis. km | Vento km/h | |
|---|---|---|---|---|---|---|---|---|
| Oggi h: 01:54 | Sereno | 22 | 22 | 100 | 1020 | 10 | N 0 | |
| Oggi h: 00:54 | Sereno | 23 | 22 | 94 | 1020 | 10 | N 0 | |
| Ieri h: 23:54 | Sereno | 23 | 22 | 94 | 1020 | 10 | N 0 | |
| Ieri h: 22:54 | Sereno | 24 | 22 | 88 | 1020 | 10 | N 0 | |
| Ieri h: 21:54 | Sereno | 24 | 22 | 88 | 1019 | 10 | N 0 | |
| Ieri h: 20:54 | Sereno | 24 | 22 | 88 | 1019 | 10 | N 0 | |
| Ieri h: 19:54 | Sereno | 27 | 22 | 74 | 1018 | 10 | N 0 | |
| Ieri h: 18:54 | Sereno | 29 | 21 | 62 | 1018 | 10 | N 0 | |
| Ieri h: 17:54 | Sereno | 33 | 19 | 43 | 1019 | 10 | N 0 | |
| Ieri h: 16:54 | Sereno | 32 | 22 | 55 | 1019 | 10 | N 0 | |
| Ieri h: 15:54 | Poco Nuvoloso | 33 | 22 | 52 | 1019 | 10 | N 9.3 | |
| Ieri h: 14:54 | Poco Nuvoloso | 32 | 22 | 55 | 1020 | 10 | N 0 | |
| Ieri h: 13:54 | Sereno | 31 | 22 | 58 | 1020 | 10 | S 9.3 | |
| Ieri h: 12:54 | Sereno | 31 | 22 | 58 | 1021 | 10 | N 0 | |
| Ieri h: 11:54 | Sereno | 29 | 23 | 70 | 1021 | 10 | N 5.5 | |
| Ieri h: 11:01 | Nuvoloso | 28 | 23 | 74 | 1021 | 10 | N 0 | |
| Ieri h: 10:54 | Molto Nuvoloso | 28 | 23 | 74 | 1021 | 10 | N 5.5 | |
| Ieri h: 09:54 | Sereno | 26 | 22 | 78 | 1021 | 10 | O/SO 7.4 | |
| Ieri h: 08:54 | Sereno | 24 | 22 | 88 | 1021 | 10 | N 5.5 | |
| Ieri h: 07:54 | Sereno | 21 | 20 | 94 | 1021 | 13 | N 0 | |
| Ieri h: 06:54 | Sereno | 19 | 19 | 100 | 1021 | 13 | N 0 | |
| Ieri h: 05:54 | Foschia | 19 | 19 | 100 | 1021 | 10 | N 0 | |
| Ieri h: 04:54 | Foschia | 19 | 19 | 100 | 1020 | 8 | N 0 | |



